Temp
7 7 7 7 7 7 7 7 7 7 7 6 6 6 6 6 6 6 6 6 5 5 5 5 5 5 5 5 5 5 5 5 5 5 5 5 5 5 4 4 4 4 4 4 4 4 4 5 5 5 5 5 5 5 5 4 4 4 3 3 3 3 3
6 6 7 7 7 7 7 7 7 6 6 6 6 6 6 6 6 6 6 6 5 5 5 5 5 5 5 5 5 5 5 5 5 5 5 5 5 4 4 4 4 4 4 4 4 4 4 5 5 5 5 5 5 5 4 4 4 3 3 3 3 3 3
6 6 6 7 7 7 7 6 6 6 6 6 6 6 6 6 6 6 6 6 5 5 5 5 5 5 5 5 5 5 5 5 5 5 5 5 4 4 4 4 4 4 4 4 4 4 4 4 4 5 5 5 5 5 5 4 3 3 3 3 3 3 3
6 6 7 7 7 7 6 6 6 6 6 6 6 6 6 6 6 6 6 6 5 5 5 5 5 5 5 5 5 5 5 5 5 5 5 4 4 4 4 4 4 4 4 4 4 4 4 4 4 4 5 5 5 6 5 4 3 3 3 3 3 3 3
6 6 7 7 6 6 6 6 6 6 6 6 6 6 6 6 6 6 6 5 5 5 5 5 5 5 5 5 5 5 5 5 5 5 4 4 4 4 4 4 4 4 4 4 4 4 4 4 4 4 4 4 5 5 5 4 3 3 3 3 3 2 3
6 6 6 6 6 6 6 6 6 6 6 6 6 6 6 6 6 5 5 5 5 5 5 5 5 5 5 5 5 5 5 4 4 4 4 4 4 4 4 4 4 4 4 4 4 4 4 4 4 4 4 4 4 4 4 4 3 3 3 3 3 3 2
6 6 6 6 6 6 6 6 6 6 6 6 6 6 6 5 5 5 5 5 5 5 5 5 5 5 5 5 5 5 4 4 4 4 4 4 4 4 4 4 4 4 4 4 4 3 3 3 3 4 4 4 4 4 4 3 3 3 3 3 3 3 3
6 6 6 6 6 6 6 6 6 6 6 6 6 5 5 5 5 5 5 5 5 5 5 5 5 5 5 5 5 5 4 4 4 4 4 4 4 4 4 4 4 4 4 4 3 3 3 3 3 3 3 3 3 3 3 3 3 3 3 3 3 3 3
6 6 6 6 6 6 6 6 6 6 6 5 5 5 5 5 5 5 5 5 5 5 5 5 5 5 5 5 5 4 4 4 4 4 4 4 4 4 4 4 4 4 3 3 3 3 3 3 3 3 3 3 3 3 3 3 3 3 3 3 3 3 3
6 6 6 6 6 6 6 6 6 5 5 5 5 5 5 5 5 5 5 5 5 5 5 5 5 5 4 4 4 4 4 4 4 4 4 4 4 4 3 3 3 3 3 3 3 3 3 3 3 3 3 3 2 2 3 3 3 3 3 3 3 3 3
5 5 6 6 6 6 5 5 5 5 5 5 5 5 5 5 5 5 5 5 5 4 4 4 4 4 4 4 4 4 4 4 4 4 4 3 3 3 3 3 3 3 3 3 3 3 3 3 3 2 2 2 2 2 2 2 3 3 3 2 3 2 2
5 5 5 5 5 5 5 5 5 5 5 5 4 4 4 4 4 4 4 4 4 4 4 4 4 4 4 4 4 4 4 4 4 3 3 3 3 3 3 3 3 3 3 3 3 3 2 2 2 2 2 2 2 2 2 2 2 3 2 2 2 2 2
5 5 5 5 5 5 5 5 5 5 4 4 4 4 4 4 4 4 4 4 4 4 4 4 4 4 4 3 3 3 3 3 3 3 3 3 3 3 3 3 3 3 3 3 3 2 2 2 2 2 2 2 2 2 2 2 2 3 3 2 2 2 2
4 5 5 5 5 5 4 4 4 4 4 4 4 4 4 4 4 4 4 4 4 4 3 3 3 3 3 3 3 3 3 3 3 3 3 3 3 3 3 3 3 3 3 3 3 2 2 2 2 2 2 2 2 2 1 1 2 2 3 2 2 2 2
4 4 4 4 4 4 4 4 4 4 3 3 3 3 3 3 3 3 3 3 3 3 3 3 3 3 3 3 3 3 3 3 3 3 2 2 2 2 2 2 2 2 2 2 2 2 2 2 2 2 2 2 2 2 1 1 1 2 2 2 2 2 2
4 4 4 4 4 4 3 3 3 3 3 3 3 3 3 3 3 3 3 2 2 2 2 2 2 2 2 2 2 2 2 2 2 2 2 2 2 2 2 2 2 2 2 2 2 2 2 2 2 2 2 2 2 2 2 1 1 1 2 2 1 1 1
3 3 3 3 3 3 3 3 3 3 3 3 3 3 3 2 2 2 2 2 2 2 2 2 2 2 2 2 2 2 2 2 2 2 2 2 2 2 2 2 2 2 2 2 2 2 2 1 1 1 1 2 2 2 2 1 1 1 1 1 1 1 1
3 3 3 3 3 2 2 2 2 2 2 2 2 2 2 2 2 2 2 1 1 1 1 1 1 1 1 2 2 2 2 2 2 2 2 2 2 2 2 2 2 2 2 2 2 2 2 1 1 1 1 1 1 2 2 1 1 1 1 1 1 1 1
2 2 2 2 2 2 2 2 2 2 2 2 2 2 1 1 1 1 1 1 1 1 1 1 1 1 1 1 1 1 1 1 1 2 2 2 2 2 2 1 2 2 1 2 1 1 1 1 1 1 1 1 1 1 1 1 1 1 1 1 1 1 1
2 2 1 1 1 1 1 1 1 1 1 1 1 1 1 1 1 1 1 1 1 1 1 1 1 1 1 1 1 1 1 1 1 1 1 1 1 1 1 1 1 1 1 1 1 1 1 1 1 0 0 1 1 1 1 1 1 1 0 0 1 1 1
1 1 1 1 1 1 1 1 1 1 1 1 0 0 0 0 0 0 0 0 0 0 0 0 0 0 0 0 0 0 1 1 1 1 1 1 1 1 1 1 1 1 0 0 0 0 1 1 1 0 0 0 0 0 1 1 0 0 0 0 0 1 0
1 1 1 1 1 1 1 0 0 0 0 0 -0 -0 -0 -0 -0 -0 -0 -0 -0 -0 -0 -0 -0 0 0 0 0 0 0 0 1 1 1 1 1 1 1 0 0 -0 -0 -0 -1 -1 -1 -1 -0 -0 -0 -0 -0 -0 0 1 0 0 0 0 0 0 0
0 0 0 0 0 0 0 -0 -0 -0 -0 -0 -0 -0 -0 -0 -0 -0 -0 -0 -0 -0 -0 -0 -0 -0 -0 -0 -0 -0 -0 0 0 0 0 0 0 0 -0 -0 -0 -1 -1 -1 -1 -1 -2 -2 -2 -2 -1 -1 -1 -1 -1 -0 0 0 0 0 -0 -0 0
-0 -0 -0 -0 -0 -0 -0 -0 -0 -0 -0 -1 -1 -1 -1 -1 -1 -1 -1 -1 -1 -1 -1 -1 -1 -1 -1 -1 -1 -1 -0 -0 -0 -1 -1 -1 -1 -1 -1 -1 -1 -1 -2 -2 -2 -2 -2 -2 -2 -3 -3 -2 -2 -2 -1 -1 -1 -0 0 0 0 -0 -0
-0 -0 -1 -1 -1 -1 -1 -1 -1 -1 -1 -1 -1 -1 -1 -1 -1 -1 -1 -1 -1 -1 -1 -1 -1 -1 -1 -1 -1 -1 -1 -1 -1 -2 -2 -2 -2 -2 -2 -2 -3 -3 -3 -3 -2 -2 -2 -3 -3 -3 -3 -3 -3 -3 -3 -2 -2 -1 -1 -0 0 -0 -1
-1 -1 -1 -1 -1 -1 -1 -1 -1 -1 -1 -1 -1 -1 -1 -1 -1 -1 -1 -2 -2 -2 -2 -2 -2 -2 -2 -2 -2 -2 -2 -2 -3 -3 -3 -3 -3 -4 -4 -4 -4 -4 -4 -4 -4 -4 -4 -3 -3 -3 -4 -4 -3 -3 -3 -3 -3 -2 -2 -1 -0 -0 -1
-1 -1 -1 -1 -1 -1 -1 -1 -1 -1 -1 -1 -1 -1 -1 -1 -2 -2 -2 -2 -2 -2 -2 -2 -2 -2 -2 -2 -2 -2 -3 -4 -4 -4 -5 -5 -5 -5 -5 -5 -5 -5 -6 -6 -5 -5 -5 -5 -4 -4 -4 -4 -4 -4 -4 -4 -4 -3 -3 -2 -1 -0 -0
-1 -1 -1 -1 -1 -1 -1 -1 -1 -2 -2 -2 -2 -2 -2 -2 -2 -2 -2 -2 -2 -2 -2 -2 -2 -2 -2 -3 -3 -3 -4 -5 -5 -5 -5 -6 -6 -6 -6 -6 -6 -6 -6 -6 -6 -6 -6 -6 -6 -5 -5 -5 -5 -4 -4 -4 -4 -4 -3 -2 -2 -1 -0
-2 -2 -2 -2 -2 -2 -2 -2 -2 -2 -2 -2 -2 -2 -2 -2 -2 -2 -3 -3 -3 -3 -3 -3 -3 -3 -3 -3 -3 -4 -5 -5 -5 -6 -6 -6 -6 -6 -6 -6 -7 -7 -7 -7 -7 -7 -7 -7 -7 -7 -6 -5 -5 -5 -4 -4 -4 -4 -3 -3 -2 -2 -1
-2 -2 -2 -2 -2 -2 -2 -2 -2 -2 -2 -2 -2 -2 -2 -2 -3 -3 -3 -3 -3 -3 -3 -3 -3 -3 -3 -3 -4 -4 -5 -5 -6 -6 -6 -6 -7 -7 -7 -7 -7 -7 -7 -8 -8 -8 -8 -8 -8 -7 -7 -6 -6 -5 -5 -4 -4 -4 -4 -3 -2 -2 -1
-2 -2 -2 -2 -2 -2 -2 -2 -2 -2 -2 -3 -3 -3 -3 -3 -3 -3 -3 -3 -3 -3 -3 -3 -4 -4 -4 -4 -4 -5 -6 -6 -6 -6 -7 -7 -7 -7 -7 -8 -8 -8 -8 -8 -8 -8 -8 -8 -8 -8 -8 -7 -7 -6 -5 -5 -4 -4 -4 -4 -3 -2 -2
-2 -2 -2 -2 -2 -2 -3 -3 -3 -3 -3 -3 -3 -3 -3 -3 -3 -3 -4 -4 -4 -4 -4 -4 -4 -4 -4 -4 -5 -5 -6 -7 -7 -7 -7 -7 -7 -7 -8 -8 -8 -8 -8 -8 -8 -8 -8 -8 -8 -8 -8 -8 -7 -7 -6 -5 -5 -4 -4 -3 -3 -3 -2
-2 -2 -3 -3 -3 -3 -3 -3 -3 -3 -3 -3 -3 -3 -4 -4 -4 -4 -4 -4 -4 -4 -4 -4 -4 -4 -5 -5 -5 -6 -6 -7 -7 -7 -7 -7 -7 -8 -8 -8 -8 -9 -9 -9 -9 -9 -9 -8 -8 -8 -8 -8 -8 -7 -7 -6 -6 -5 -4 -3 -3 -3 -3
-3 -3 -3 -3 -3 -3 -3 -3 -3 -3 -3 -3 -4 -4 -4 -4 -4 -4 -4 -4 -4 -4 -4 -5 -5 -5 -5 -6 -6 -6 -7 -7 -7 -8 -8 -8 -8 -8 -8 -9 -9 -9 -9 -9 -9 -9 -9 -9 -9 -9 -9 -9 -8 -8 -8 -7 -7 -6 -5 -4 -3 -3 -3
-3 -3 -3 -3 -3 -3 -3 -4 -4 -4 -4 -4 -4 -4 -4 -4 -5 -5 -5 -5 -5 -5 -5 -5 -5 -5 -6 -6 -6 -7 -7 -8 -8 -8 -8 -8 -8 -9 -9 -9 -9 -10 -10 -10 -10 -10 -10 -10 -9 -9 -9 -9 -8 -8 -8 -7 -7 -6 -5 -5 -4 -3 -3
-3 -3 -3 -3 -3 -3 -4 -4 -4 -4 -4 -4 -4 -4 -5 -5 -5 -5 -5 -5 -5 -5 -5 -5 -5 -6 -6 -6 -7 -7 -8 -8 -8 -8 -8 -8 -9 -9 -9 -9 -10 -10 -10 -10 -10 -10 -10 -10 -10 -10 -9 -9 -9 -8 -8 -7 -7 -6 -6 -5 -4 -4 -3
-3 -3 -3 -3 -4 -4 -4 -4 -4 -4 -4 -4 -5 -5 -5 -5 -5 -5 -5 -5 -5 -5 -5 -6 -6 -6 -6 -7 -7 -7 -8 -8 -8 -8 -9 -9 -9 -9 -10 -10 -10 -10 -10 -10 -11 -11 -10 -10 -10 -10 -10 -9 -9 -8 -8 -7 -7 -6 -5 -5 -5 -4 -4
Height
3176 3176 3175 3175 3175 3175 3175 3174 3173 3173 3172 3171 3170 3170 3169 3168 3167 3166 3165 3165 3164 3163 3161 3160 3159 3158 3157 3157 3156 3155 3154 3153 3151 3150 3149 3148 3146 3145 3145 3143 3142 3141 3139 3137 3135 3131 3127 3125 3126 3127 3126 3124 3123 3122 3121 3120 3119 3118 3118 3117 3117 3117 3118
3175 3175 3174 3174 3174 3174 3173 3173 3172 3171 3171 3170 3169 3168 3168 3167 3166 3165 3164 3163 3162 3161 3160 3159 3158 3157 3156 3155 3154 3153 3152 3151 3149 3148 3147 3146 3144 3143 3141 3140 3139 3138 3137 3135 3133 3131 3127 3124 3123 3124 3122 3120 3119 3118 3117 3115 3114 3114 3113 3113 3113 3113 3114
3174 3173 3173 3173 3172 3172 3172 3171 3170 3170 3169 3169 3168 3167 3166 3165 3164 3163 3162 3161 3160 3160 3158 3157 3156 3155 3154 3153 3152 3151 3150 3148 3147 3146 3145 3143 3142 3140 3139 3137 3135 3134 3133 3132 3130 3128 3126 3123 3121 3121 3120 3117 3114 3114 3113 3111 3110 3110 3109 3108 3109 3110 3110
3172 3172 3171 3171 3170 3170 3170 3169 3169 3168 3167 3167 3166 3165 3164 3163 3163 3162 3161 3160 3159 3158 3156 3155 3154 3153 3152 3151 3149 3148 3147 3146 3145 3143 3142 3141 3139 3137 3136 3134 3132 3131 3129 3128 3127 3125 3123 3121 3118 3116 3116 3114 3111 3110 3109 3107 3106 3106 3104 3104 3105 3106 3106
3170 3170 3169 3169 3168 3168 3168 3167 3167 3166 3166 3165 3164 3163 3162 3161 3161 3160 3159 3158 3157 3155 3154 3153 3152 3150 3149 3148 3147 3145 3144 3143 3142 3140 3139 3138 3136 3134 3133 3131 3130 3128 3127 3125 3124 3122 3120 3118 3115 3113 3112 3110 3107 3107 3106 3103 3102 3102 3101 3100 3101 3102 3102
3168 3168 3167 3167 3166 3166 3166 3166 3165 3165 3164 3163 3162 3161 3160 3159 3158 3157 3157 3156 3154 3153 3152 3151 3149 3148 3147 3145 3144 3142 3141 3139 3138 3137 3135 3134 3132 3131 3130 3128 3127 3125 3124 3122 3120 3119 3117 3115 3112 3110 3108 3106 3103 3103 3103 3100 3098 3098 3098 3098 3098 3098 3098
3166 3166 3165 3165 3165 3164 3164 3164 3163 3163 3162 3161 3160 3159 3158 3157 3156 3155 3154 3153 3152 3151 3150 3148 3147 3145 3144 3142 3141 3139 3138 3136 3134 3133 3131 3130 3129 3127 3126 3125 3123 3122 3120 3118 3116 3115 3113 3111 3109 3106 3104 3102 3100 3099 3098 3097 3095 3094 3095 3095 3094 3094 3094
3163 3163 3163 3163 3163 3162 3162 3162 3161 3161 3160 3159 3158 3157 3156 3155 3154 3153 3152 3151 3150 3148 3147 3146 3144 3142 3141 3139 3138 3136 3134 3133 3131 3129 3127 3126 3125 3124 3122 3120 3119 3118 3116 3114 3112 3111 3109 3107 3106 3104 3101 3098 3096 3095 3094 3093 3091 3091 3091 3091 3090 3090 3090
3160 3160 3160 3161 3161 3160 3160 3159 3159 3158 3157 3157 3156 3155 3154 3153 3152 3151 3150 3149 3147 3146 3145 3143 3141 3140 3138 3136 3134 3132 3131 3129 3127 3125 3123 3122 3120 3119 3118 3116 3114 3113 3111 3110 3108 3107 3105 3104 3102 3100 3098 3095 3092 3090 3089 3088 3087 3087 3087 3086 3085 3086 3086
3157 3158 3158 3158 3158 3158 3158 3157 3156 3156 3155 3154 3153 3153 3152 3151 3149 3148 3147 3146 3144 3143 3142 3140 3138 3137 3134 3132 3130 3129 3127 3125 3123 3121 3119 3118 3116 3114 3113 3111 3109 3108 3106 3105 3104 3102 3101 3099 3098 3097 3095 3093 3090 3086 3084 3082 3082 3083 3083 3081 3081 3081 3082
3155 3155 3155 3156 3156 3156 3155 3155 3154 3153 3153 3152 3152 3151 3150 3149 3147 3146 3145 3143 3142 3140 3139 3137 3135 3133 3131 3129 3127 3124 3122 3121 3119 3117 3115 3113 3111 3110 3108 3106 3104 3103 3101 3100 3099 3097 3096 3094 3093 3092 3091 3090 3087 3084 3081 3078 3077 3079 3079 3077 3077 3077 3076
3152 3152 3153 3153 3154 3153 3153 3153 3152 3151 3151 3150 3149 3149 3147 3146 3145 3144 3143 3141 3139 3137 3135 3133 3131 3129 3127 3125 3123 3121 3119 3117 3115 3113 3111 3108 3107 3105 3104 3102 3100 3098 3097 3095 3094 3092 3091 3090 3088 3087 3086 3085 3083 3081 3078 3075 3073 3075 3075 3072 3072 3073 3071
3149 3150 3151 3151 3151 3151 3151 3150 3149 3149 3148 3147 3146 3145 3144 3144 3142 3141 3140 3138 3136 3134 3132 3130 3128 3126 3123 3121 3119 3117 3115 3113 3111 3109 3107 3105 3103 3101 3099 3097 3095 3094 3092 3091 3089 3088 3086 3085 3084 3082 3081 3080 3079 3077 3075 3073 3070 3071 3071 3069 3067 3067 3067
3147 3148 3148 3148 3148 3148 3148 3147 3146 3146 3145 3144 3143 3142 3141 3140 3139 3137 3136 3134 3132 3131 3129 3127 3124 3122 3120 3118 3115 3113 3111 3109 3107 3105 3103 3101 3099 3097 3095 3093 3091 3089 3087 3086 3084 3083 3082 3080 3079 3078 3076 3074 3073 3073 3071 3069 3067 3065 3065 3064 3062 3062 3062
3146 3146 3146 3146 3146 3145 3145 3144 3143 3143 3142 3141 3140 3139 3137 3136 3135 3133 3132 3130 3128 3126 3124 3122 3121 3119 3116 3114 3112 3110 3108 3106 3104 3102 3099 3097 3095 3093 3091 3088 3086 3085 3083 3081 3079 3078 3076 3075 3073 3072 3071 3069 3068 3068 3067 3064 3062 3060 3059 3059 3058 3057 3056
3144 3144 3144 3144 3143 3143 3142 3141 3141 3140 3139 3138 3137 3135 3134 3133 3131 3130 3128 3126 3124 3122 3120 3119 3117 3115 3113 3111 3109 3106 3104 3102 3099 3097 3095 3093 3091 3089 3086 3084 3082 3080 3078 3076 3074 3073 3071 3070 3069 3067 3066 3064 3063 3063 3062 3060 3058 3055 3054 3054 3053 3052 3052
3142 3142 3142 3141 3141 3140 3140 3139 3138 3137 3136 3135 3134 3132 3131 3130 3128 3127 3125 3123 3122 3120 3117 3115 3113 3111 3110 3108 3106 3103 3101 3099 3096 3094 3091 3089 3086 3084 3082 3079 3077 3075 3073 3071 3069 3068 3066 3064 3064 3062 3061 3059 3058 3057 3057 3056 3054 3052 3050 3049 3049 3049 3048
3140 3140 3140 3139 3139 3138 3137 3137 3136 3135 3134 3133 3132 3130 3129 3127 3126 3124 3123 3121 3119 3117 3115 3113 3111 3109 3107 3105 3103 3101 3098 3096 3093 3090 3088 3085 3082 3080 3077 3075 3072 3070 3067 3065 3064 3062 3060 3059 3058 3057 3056 3054 3053 3052 3052 3051 3050 3048 3046 3045 3045 3044 3044
3138 3138 3138 3137 3136 3136 3135 3135 3134 3133 3132 3131 3130 3129 3127 3126 3124 3122 3121 3119 3117 3115 3114 3112 3110 3107 3105 3103 3100 3098 3095 3093 3090 3088 3085 3082 3079 3076 3073 3070 3068 3065 3062 3060 3058 3056 3055 3053 3052 3051 3049 3048 3047 3047 3046 3046 3045 3043 3042 3040 3040 3040 3039
3136 3136 3136 3135 3135 3135 3134 3133 3132 3131 3130 3129 3128 3127 3126 3124 3123 3121 3119 3117 3116 3114 3112 3111 3108 3106 3104 3101 3098 3095 3093 3090 3088 3085 3082 3079 3076 3073 3070 3067 3064 3060 3057 3055 3052 3050 3049 3047 3046 3045 3043 3042 3041 3041 3041 3041 3039 3038 3037 3036 3035 3035 3035
3135 3135 3134 3134 3134 3133 3132 3132 3131 3130 3129 3128 3127 3126 3124 3123 3121 3120 3118 3116 3114 3113 3111 3109 3107 3105 3102 3099 3096 3093 3090 3087 3085 3082 3079 3076 3072 3069 3066 3063 3060 3056 3053 3050 3048 3045 3042 3040 3039 3038 3037 3036 3035 3035 3035 3035 3034 3033 3031 3030 3030 3031 3031
3134 3133 3133 3133 3132 3132 3131 3131 3130 3129 3128 3127 3126 3125 3123 3122 3120 3119 3117 3115 3113 3111 3109 3107 3105 3102 3100 3097 3094 3091 3087 3084 3081 3078 3075 3072 3069 3065 3062 3059 3055 3052 3049 3046 3044 3041 3038 3035 3032 3031 3030 3029 3028 3028 3028 3028 3028 3027 3026 3025 3025 3026 3026
3133 3132 3132 3132 3131 3131 3130 3130 3129 3128 3127 3126 3125 3124 3123 3121 3120 3118 3116 3114 3112 3110 3107 3105 3102 3099 3097 3094 3091 3088 3085 3081 3078 3075 3072 3069 3065 3062 3058 3055 3051 3048 3045 3042 3039 3037 3035 3032 3029 3026 3024 3021 3020 3020 3020 3021 3021 3020 3019 3019 3020 3021 3021
3132 3131 3131 3131 3130 3130 3130 3129 3128 3128 3126 3125 3124 3123 3122 3121 3119 3117 3115 3113 3111 3108 3106 3103 3100 3097 3093 3090 3087 3084 3081 3078 3075 3071 3067 3064 3061 3057 3054 3051 3047 3044 3040 3037 3034 3032 3030 3027 3025 3023 3020 3018 3015 3013 3012 3012 3013 3013 3013 3012 3013 3015 3015
3131 3131 3130 3130 3130 3130 3129 3128 3127 3127 3126 3125 3124 3122 3121 3120 3118 3116 3114 3112 3109 3107 3104 3101 3098 3094 3091 3088 3084 3081 3078 3074 3070 3067 3063 3059 3056 3052 3049 3046 3043 3039 3035 3031 3028 3025 3023 3022 3020 3018 3015 3014 3011 3009 3006 3004 3004 3005 3006 3005 3006 3008 3009
3130 3130 3130 3130 3130 3129 3128 3127 3127 3126 3125 3124 3123 3121 3120 3118 3116 3114 3112 3110 3108 3105 3102 3099 3096 3093 3089 3086 3082 3078 3074 3070 3066 3063 3059 3055 3052 3048 3044 3041 3038 3034 3031 3027 3023 3019 3016 3015 3013 3011 3010 3008 3007 3005 3003 3000 2997 2997 2997 2998 2999 3001 3004
3130 3130 3130 3129 3129 3128 3128 3127 3126 3125 3124 3123 3122 3120 3118 3117 3115 3113 3110 3108 3105 3103 3100 3097 3094 3091 3087 3083 3080 3076 3072 3068 3064 3060 3056 3052 3049 3045 3041 3037 3034 3030 3026 3023 3018 3014 3010 3008 3006 3004 3003 3002 3001 3000 2998 2996 2994 2991 2990 2990 2991 2994 2998
3129 3129 3129 3128 3128 3128 3127 3126 3126 3124 3123 3122 3120 3119 3117 3115 3113 3110 3108 3106 3103 3101 3099 3096 3092 3089 3085 3081 3077 3073 3070 3066 3063 3059 3055 3051 3047 3043 3039 3035 3031 3027 3023 3019 3015 3010 3006 3002 2999 2997 2996 2995 2994 2993 2992 2990 2989 2987 2985 2984 2984 2986 2990
3129 3128 3128 3128 3127 3127 3126 3125 3125 3123 3122 3121 3119 3117 3115 3113 3111 3109 3107 3105 3102 3100 3097 3093 3090 3086 3083 3079 3075 3072 3068 3064 3061 3057 3053 3049 3045 3041 3037 3032 3028 3024 3020 3016 3012 3008 3003 2999 2995 2992 2990 2989 2987 2987 2986 2984 2983 2982 2981 2979 2979 2980 2983
3128 3128 3128 3127 3127 3126 3125 3124 3123 3122 3121 3119 3117 3116 3114 3112 3110 3108 3106 3103 3101 3098 3095 3091 3088 3084 3081 3077 3073 3069 3066 3062 3058 3055 3051 3047 3043 3039 3035 3030 3026 3022 3018 3014 3010 3005 3001 2996 2992 2988 2985 2983 2982 2980 2979 2978 2977 2976 2975 2974 2974 2975 2977
3128 3127 3127 3127 3126 3125 3124 3123 3122 3121 3119 3118 3116 3114 3112 3111 3109 3107 3104 3102 3099 3096 3093 3089 3086 3082 3079 3075 3071 3067 3063 3060 3056 3053 3050 3046 3042 3038 3034 3029 3025 3020 3016 3012 3007 3003 2998 2993 2989 2985 2981 2978 2976 2974 2972 2971 2971 2971 2970 2970 2969 2970 2972
3127 3127 3127 3126 3125 3124 3123 3122 3121 3119 3118 3116 3115 3113 3111 3110 3108 3105 3103 3100 3097 3094 3091 3088 3084 3081 3077 3073 3069 3065 3062 3058 3055 3051 3048 3044 3040 3036 3032 3028 3024 3019 3014 3010 3005 3001 2996 2991 2986 2982 2977 2974 2971 2969 2967 2965 2964 2964 2965 2965 2965 2965 2966
3127 3126 3126 3125 3124 3123 3122 3120 3119 3117 3116 3115 3114 3112 3111 3109 3106 3104 3102 3099 3096 3093 3090 3086 3083 3079 3075 3072 3068 3064 3060 3057 3053 3049 3046 3042 3038 3034 3030 3026 3022 3018 3013 3008 3004 2999 2994 2989 2984 2980 2975 2972 2968 2965 2963 2961 2960 2959 2959 2960 2960 2960 2961
3126 3126 3125 3124 3123 3122 3120 3119 3118 3117 3116 3114 3113 3111 3110 3108 3105 3103 3100 3097 3095 3092 3089 3085 3082 3078 3074 3071 3067 3063 3059 3055 3051 3048 3044 3040 3036 3032 3028 3024 3020 3016 3012 3007 3002 2997 2992 2987 2983 2979 2975 2971 2967 2964 2961 2959 2957 2955 2954 2954 2955 2955 2956
3125 3125 3124 3123 3122 3121 3120 3118 3117 3116 3115 3114 3112 3110 3109 3107 3104 3102 3099 3097 3094 3091 3088 3084 3081 3077 3074 3070 3066 3063 3059 3055 3051 3047 3043 3040 3035 3031 3027 3023 3019 3015 3011 3006 3001 2996 2991 2986 2982 2978 2974 2971 2967 2964 2961 2958 2955 2953 2951 2951 2950 2951 2952
3124 3124 3123 3122 3121 3120 3119 3118 3117 3116 3115 3113 3112 3110 3108 3106 3104 3101 3099 3096 3093 3090 3087 3084 3080 3077 3074 3070 3067 3063 3059 3055 3051 3047 3043 3039 3034 3031 3027 3023 3019 3015 3011 3006 3001 2996 2991 2986 2981 2977 2973 2970 2967 2963 2960 2957 2954 2951 2949 2948 2947 2947 2947
3123 3123 3122 3121 3120 3120 3119 3118 3117 3116 3114 3113 3111 3109 3107 3106 3103 3101 3098 3096 3093 3090 3087 3084 3080 3077 3074 3070 3067 3063 3059 3056 3052 3047 3043 3038 3034 3030 3026 3022 3019 3015 3011 3006 3002 2997 2992 2987 2981 2977 2973 2969 2966 2963 2959 2956 2952 2949 2947 2946 2945 2944 2944
Wind_Speed
11 12 12 11 11 11 12 13 13 14 15 16 17 18 19 19 19 19 18 18 18 18 19 20 20 21 21 21 22 23 23 24 25 26 26 26 27 27 28 29 30 30 31 32 33 35 38 37 35 34 34 35 34 32 30 28 27 28 29 30 30 30 30
12 13 13 13 12 13 13 14 15 15 15 16 18 19 19 19 19 19 19 19 19 19 20 20 21 21 22 22 23 24 24 25 25 26 26 26 28 29 30 31 31 31 30 31 31 33 35 37 36 34 35 36 35 33 32 30 28 27 28 30 30 30 29
13 13 14 14 14 14 15 15 16 17 17 17 18 19 19 19 18 19 19 20 20 21 21 21 21 22 22 23 24 24 25 26 26 27 27 27 28 30 31 32 32 32 32 31 31 32 34 36 37 35 34 36 36 34 33 31 28 26 28 30 30 29 28
14 14 14 14 15 15 16 16 17 18 18 18 18 18 18 18 18 18 19 19 20 21 21 22 22 22 23 24 25 26 26 27 27 27 28 29 30 31 32 33 33 33 33 32 32 33 34 35 37 37 35 36 37 35 33 31 28 26 26 29 30 28 27
16 16 16 15 15 16 16 17 18 19 19 19 19 19 18 18 18 18 19 19 20 21 22 22 23 24 25 26 27 28 28 28 28 29 30 31 31 32 32 33 33 33 33 33 33 33 34 35 36 37 37 36 36 35 32 32 31 27 25 27 29 27 27
17 17 17 17 17 17 17 18 19 20 20 20 19 19 18 18 19 19 19 20 20 21 22 23 24 25 26 27 28 29 30 31 31 32 32 32 33 33 33 33 33 33 33 33 33 33 33 34 35 37 37 36 36 35 32 32 32 30 26 25 27 27 27
19 19 19 19 18 18 18 19 20 20 21 21 20 19 19 19 20 20 20 21 21 22 23 24 25 26 27 29 30 31 32 33 34 34 34 34 34 34 34 34 33 34 34 34 34 34 34 34 35 36 36 36 36 35 33 32 32 31 27 26 27 27 26
20 20 20 20 19 19 19 20 20 21 21 21 21 20 20 21 21 21 21 21 21 22 23 24 26 27 29 30 31 32 33 34 35 36 36 36 36 35 35 35 35 35 35 35 35 35 34 34 34 35 35 36 35 35 33 32 32 31 29 27 28 27 27
21 21 21 21 20 20 20 21 21 21 21 21 21 22 22 22 21 21 21 22 22 23 24 26 27 29 31 32 33 35 35 36 37 37 38 38 38 38 37 37 37 37 37 37 36 36 35 34 34 34 34 34 35 35 34 34 33 31 29 29 28 26 26
21 21 21 21 21 20 21 21 21 21 21 22 22 22 22 22 22 22 23 24 25 26 27 29 30 32 34 35 36 37 38 38 38 38 38 38 39 39 39 39 39 39 39 39 38 37 36 35 33 33 33 32 33 34 34 35 34 31 29 29 28 26 26
21 21 21 21 21 21 21 21 21 21 22 22 22 22 22 23 23 23 24 26 28 29 30 32 33 35 36 37 37 38 38 37 37 37 38 38 38 38 39 39 40 40 40 40 40 39 37 36 33 32 31 30 32 32 33 35 35 31 30 30 28 27 28
20 20 20 20 20 20 21 21 21 22 22 22 22 23 23 23 24 25 27 29 30 31 32 33 35 35 36 36 36 36 36 36 37 37 37 38 38 38 38 38 39 39 39 39 40 39 37 36 34 32 31 30 31 32 32 35 35 31 30 30 29 28 29
18 18 19 19 20 20 21 21 21 22 22 23 23 23 24 25 26 27 29 30 31 32 33 33 34 34 34 34 34 35 35 36 36 36 37 37 38 38 39 39 39 39 40 39 39 38 37 35 34 32 31 31 31 31 32 34 35 33 31 30 29 29 29
16 17 18 18 19 20 20 20 21 22 22 23 24 25 26 26 28 28 29 30 31 31 31 32 32 32 33 33 33 34 34 35 35 36 36 37 37 38 39 39 40 40 40 40 39 39 37 35 34 32 31 31 32 31 31 33 34 34 33 31 30 30 29
15 16 17 18 18 19 19 20 21 22 23 24 25 25 26 27 28 28 28 29 29 30 30 30 31 32 32 33 34 34 35 35 36 36 36 37 37 38 39 39 40 40 40 40 40 39 37 35 35 33 32 32 32 31 31 32 33 34 34 33 32 31 30
15 15 16 17 17 18 19 20 21 22 23 24 24 25 26 26 26 27 27 27 28 29 29 30 30 31 31 31 32 32 33 34 34 35 35 36 37 37 38 39 40 41 41 41 40 40 39 36 35 34 33 33 33 31 30 31 33 34 35 34 32 31 32
13 14 15 16 17 18 19 20 21 22 23 23 23 24 24 25 25 25 26 26 27 27 27 27 27 27 27 28 28 29 30 30 32 33 33 34 35 36 37 38 39 40 41 41 41 41 40 39 36 34 34 34 34 32 31 31 32 33 34 34 33 32 33
12 13 15 16 17 18 19 20 20 21 21 21 21 22 22 23 24 24 24 23 23 23 23 24 25 26 27 28 28 29 30 30 31 32 33 34 34 35 36 37 38 39 40 41 41 41 41 41 39 36 34 34 35 34 32 32 33 33 33 34 33 33 33
12 13 15 15 16 17 17 18 18 18 18 19 19 20 20 20 20 20 20 20 21 22 23 24 25 27 28 29 30 30 31 32 32 33 33 34 35 35 36 37 38 39 40 40 41 41 41 41 41 39 36 35 35 34 33 32 33 34 35 35 34 33 34
12 13 14 14 14 14 15 15 15 16 17 17 17 17 16 16 17 18 19 20 22 23 24 25 26 27 28 29 30 31 32 33 33 34 34 35 35 36 36 37 38 39 40 41 42 42 42 42 41 40 39 37 36 34 33 32 32 33 35 37 35 33 34
12 12 12 12 12 12 12 13 14 14 14 13 13 13 14 15 17 18 20 21 23 24 25 26 26 27 28 30 30 31 32 33 33 33 34 35 35 36 36 37 38 38 39 40 41 42 43 43 43 42 40 39 37 36 35 34 33 32 33 36 36 33 33
10 10 10 9 10 10 11 11 11 10 10 10 11 13 15 16 18 19 21 22 23 25 26 27 28 28 29 29 30 31 32 33 34 34 34 35 35 36 37 37 38 38 39 39 39 40 41 42 44 44 43 42 40 38 36 37 38 38 38 39 37 33 33
8 7 7 8 9 9 9 8 8 8 9 11 12 14 15 17 18 19 21 22 24 25 27 28 29 30 30 31 31 32 33 34 34 35 35 35 35 36 36 37 38 38 39 40 39 39 39 38 39 41 43 44 43 42 40 38 40 42 43 44 40 34 34
5 5 6 7 7 7 6 6 7 9 10 12 13 14 15 17 18 19 21 23 24 25 27 28 29 30 32 33 34 34 35 35 35 36 36 36 37 37 37 37 37 38 39 40 40 40 39 38 37 37 38 40 41 43 44 42 41 40 42 44 41 35 35
3 5 5 5 4 4 5 7 8 10 11 12 13 14 16 17 19 20 22 23 24 25 27 28 30 31 32 34 35 36 36 37 37 37 38 38 38 39 39 38 38 39 39 40 41 41 40 39 37 37 36 36 37 39 42 44 44 42 40 41 41 39 38
3 3 2 1 2 4 6 8 9 10 11 12 14 15 16 18 19 21 22 23 24 26 27 29 30 32 33 34 35 37 37 38 39 39 39 40 40 40 41 40 40 40 40 41 42 42 41 40 38 37 35 34 34 35 38 41 43 44 43 41 41 40 39
1 0 1 1 3 5 7 8 9 10 12 13 14 15 17 18 20 21 23 24 25 27 28 29 31 32 34 35 36 37 38 38 39 39 40 40 40 40 41 41 41 41 41 42 43 43 43 42 40 38 36 34 32 32 35 38 40 42 44 44 43 40 38
2 2 1 3 4 6 7 8 10 11 12 13 15 16 18 20 21 23 24 25 26 27 28 30 31 33 34 36 37 37 38 37 37 38 38 38 39 39 40 40 41 41 42 42 42 43 44 44 42 40 37 35 32 30 31 35 38 40 42 45 46 43 40
2 1 2 4 5 7 8 9 11 12 13 15 16 17 19 21 22 23 24 25 26 27 29 31 33 34 35 36 37 37 37 37 37 37 37 37 37 38 39 40 41 41 41 41 41 42 42 43 42 41 39 36 33 30 28 31 35 37 40 44 47 46 43
1 2 3 5 6 8 9 10 12 13 14 15 17 18 20 21 22 24 25 26 27 29 31 32 34 35 36 37 37 37 37 37 37 37 37 37 37 38 38 39 40 41 41 40 40 39 39 39 39 39 39 37 33 30 28 28 31 34 36 40 44 45 44
1 2 4 6 7 9 10 11 12 14 15 16 18 19 20 21 22 24 25 26 28 30 31 33 34 36 37 37 38 38 38 37 37 37 37 36 36 37 37 38 39 39 39 39 39 38 37 36 36 36 36 36 32 29 27 27 28 30 32 35 39 41 42
1 3 5 7 8 10 11 12 13 15 16 17 18 20 21 22 23 24 25 27 28 30 32 33 35 36 37 38 38 38 38 37 37 38 37 37 36 37 37 37 38 38 40 40 41 40 39 38 36 34 33 34 32 28 26 25 25 26 28 30 33 37 39
2 4 6 7 9 10 12 13 15 16 17 18 19 20 21 22 23 24 26 27 29 30 32 34 35 37 37 38 38 38 38 38 38 38 38 38 38 38 38 38 39 40 41 43 44 44 43 42 40 36 33 32 32 28 25 23 22 22 23 26 28 31 34
4 5 7 8 9 11 12 14 15 16 17 18 19 20 21 22 23 25 26 28 29 31 32 34 36 37 37 37 37 37 37 38 38 39 38 38 38 39 39 39 40 42 43 44 45 45 45 44 41 36 32 30 29 28 27 26 25 22 21 21 23 26 29
5 6 7 9 10 11 13 14 15 16 17 18 19 20 21 23 24 25 26 28 29 31 32 34 36 37 37 37 36 36 36 37 37 38 38 38 38 38 39 40 41 42 43 44 44 43 43 42 39 35 31 29 27 24 23 26 26 24 22 20 19 21 24
5 7 8 9 10 11 13 14 15 16 17 18 19 20 21 22 24 25 26 28 29 31 32 34 35 36 36 36 35 35 35 35 36 37 37 38 38 38 38 39 40 41 42 42 41 40 39 38 36 32 28 27 26 23 21 21 21 19 19 19 18 18 19
6 7 8 9 10 11 12 13 14 16 17 18 19 20 21 22 23 25 26 27 28 30 31 33 34 35 36 35 34 34 34 34 35 36 37 38 38 38 38 38 39 40 40 38 36 35 34 33 32 28 25 23 22 21 19 17 14 11 10 14 16 16 15
Wind_Direction
291 292 286 281 283 285 289 292 295 300 304 309 312 313 314 315 316 318 317 316 314 313 312 311 309 309 308 308 307 307 305 304 304 304 304 305 306 306 306 306 307 309 310 310 311 311 312 313 315 317 318 316 314 312 308 302 292 280 270 268 271 269 264
284 286 283 276 276 277 281 286 290 295 300 303 305 306 307 309 311 313 314 314 313 313 311 310 308 307 307 307 307 306 305 305 305 304 304 304 304 304 305 305 305 306 306 306 307 308 310 311 312 315 315 314 313 313 310 304 298 289 274 265 265 268 266
278 278 276 269 268 271 277 282 287 291 295 297 297 298 300 303 306 308 309 310 311 311 310 309 307 306 305 305 305 304 303 304 304 304 303 303 302 302 302 303 304 304 304 305 306 307 307 308 310 311 313 313 312 313 311 303 298 294 281 267 261 265 268
275 274 269 263 262 267 273 279 284 287 289 291 292 293 295 298 300 302 303 305 306 307 308 308 307 305 304 303 302 301 300 300 300 301 301 300 300 299 300 301 302 302 303 305 305 305 305 307 310 311 312 313 311 312 312 305 299 298 287 271 262 263 266
274 272 265 259 259 263 270 275 280 283 284 285 286 288 290 292 294 296 298 299 301 303 304 305 305 304 303 302 300 300 299 298 298 297 297 297 297 297 298 299 300 301 302 303 303 303 304 306 308 310 312 311 310 312 312 306 302 300 290 274 264 263 265
271 269 261 256 255 259 266 271 275 278 279 280 281 282 285 288 290 292 294 296 298 300 302 303 304 304 304 302 301 300 300 299 298 297 297 296 296 296 297 298 299 300 300 300 300 300 302 304 306 308 309 309 310 312 310 306 303 298 290 277 266 263 265
268 264 257 253 253 256 262 267 270 273 275 276 278 280 283 285 287 289 292 295 297 300 302 303 304 304 304 303 302 301 299 299 298 298 297 296 296 296 297 297 297 298 298 298 299 300 301 303 304 306 308 308 309 309 307 305 302 296 291 281 269 264 265
263 259 253 251 253 255 261 265 269 272 274 276 278 280 281 282 284 286 289 293 296 298 299 300 301 301 301 300 300 299 299 298 297 297 297 296 296 296 296 296 296 296 297 297 298 299 301 301 303 304 305 306 307 306 304 302 299 297 293 286 275 267 265
257 254 251 251 253 257 262 266 270 273 275 276 277 279 280 281 284 286 289 292 294 295 296 297 298 298 298 298 298 298 298 297 297 296 296 295 295 295 295 295 295 296 295 296 297 298 299 300 301 301 302 303 304 304 302 300 299 299 296 289 282 273 267
252 250 249 250 253 257 263 267 271 273 274 276 277 278 280 283 286 288 291 294 295 296 296 296 296 297 297 297 297 298 298 297 297 296 296 295 294 295 295 295 295 295 295 295 296 297 298 298 299 298 298 300 301 300 299 296 297 299 296 290 286 280 270
248 247 248 250 254 259 264 267 271 273 275 277 278 280 282 285 288 290 293 295 296 296 296 296 297 297 298 298 299 299 299 299 299 298 298 297 296 295 294 294 294 294 295 295 296 297 297 297 296 294 294 294 294 294 293 292 293 297 295 289 286 283 274
247 247 249 252 256 261 265 269 273 276 279 280 281 283 286 288 289 291 293 294 294 295 296 297 298 299 300 300 301 301 301 301 300 300 299 298 298 297 296 295 295 294 294 295 296 296 296 296 295 292 290 289 289 290 290 290 291 293 291 288 287 283 276
248 250 252 257 261 265 270 275 279 282 284 285 287 288 290 290 291 292 293 293 294 296 297 299 300 302 302 302 302 302 302 301 301 300 300 299 299 298 297 297 296 295 295 295 295 295 295 295 294 291 289 286 286 287 288 288 290 289 287 287 287 283 277
253 255 258 262 267 272 278 282 286 289 290 290 291 292 293 294 294 295 296 297 298 300 301 303 304 305 305 305 305 304 303 303 302 301 300 300 299 298 298 297 296 295 295 295 295 295 295 295 293 290 287 285 284 285 285 286 287 288 288 288 287 286 282
258 261 265 270 276 281 286 290 292 293 293 294 295 296 297 298 299 300 302 303 305 306 307 308 308 308 308 307 306 305 304 303 302 302 301 300 299 299 298 298 297 296 295 295 295 295 295 294 292 290 287 283 282 282 283 284 284 286 288 290 290 291 289
263 269 274 279 284 289 293 295 295 296 296 298 299 300 302 303 305 307 309 310 312 312 313 313 312 312 311 311 310 309 308 307 306 305 304 303 301 300 299 299 298 297 297 296 296 296 296 295 292 290 287 283 280 279 280 280 281 284 287 289 290 292 292
271 277 282 287 291 295 296 297 298 299 301 302 304 305 307 308 310 312 314 316 317 318 320 320 321 321 320 320 319 318 317 316 315 314 312 310 308 306 304 302 300 298 297 296 296 296 296 295 293 290 286 283 279 276 276 276 278 280 284 287 287 287 289
281 286 291 295 297 299 300 301 302 303 305 307 309 310 312 313 315 318 321 324 326 329 330 330 330 329 328 327 325 324 323 321 319 318 316 315 313 311 309 306 304 301 299 297 296 295 295 295 294 292 287 283 279 275 272 272 273 275 278 282 285 285 287
291 294 297 299 301 302 303 304 306 307 309 312 313 316 318 322 326 329 332 335 336 336 335 334 332 331 330 328 326 325 323 321 320 318 317 315 314 312 310 308 306 304 302 301 298 296 295 294 293 292 289 284 279 275 272 271 271 273 276 278 282 285 286
297 299 300 302 303 304 306 308 311 314 316 318 321 325 331 336 338 339 340 339 338 336 334 333 332 330 329 327 326 324 323 322 320 319 317 316 314 312 310 309 307 305 304 302 300 299 296 294 292 291 290 286 281 276 271 268 268 272 276 276 277 282 285
299 301 302 304 306 309 313 316 318 320 324 328 335 341 344 344 343 342 341 339 337 335 333 332 331 329 329 328 327 326 324 322 321 320 318 316 315 313 312 310 308 306 304 303 301 300 298 296 293 291 289 287 282 277 270 264 263 266 271 273 274 278 282
300 302 306 309 314 318 321 323 325 330 338 344 348 349 346 345 344 343 341 338 337 335 334 333 332 332 332 331 330 329 327 325 324 322 321 318 317 315 314 312 310 308 306 304 302 301 299 298 296 293 291 288 284 279 272 264 261 261 264 267 270 273 276
302 307 314 319 325 327 328 331 338 347 352 352 350 347 345 344 343 341 339 338 338 337 337 337 336 337 336 336 335 333 331 330 328 326 324 322 320 318 316 314 312 310 308 305 303 301 299 298 296 294 292 290 287 283 278 270 264 262 262 264 266 268 272
310 320 326 330 333 333 338 348 355 357 354 351 347 344 343 343 341 340 340 340 340 340 340 340 341 341 340 339 338 337 335 334 332 330 329 327 325 323 321 319 316 313 310 307 304 302 300 298 296 293 290 288 286 285 282 278 271 266 263 262 262 263 266
327 331 333 337 339 346 359 1 359 355 350 346 344 343 343 343 342 342 342 343 343 343 344 344 344 343 343 342 341 340 339 338 337 336 334 333 331 329 327 325 323 320 316 312 309 305 302 299 297 295 291 286 282 280 280 280 277 272 267 264 261 258 260
336 338 344 357 7 7 6 359 352 348 346 344 344 344 343 343 344 344 345 345 346 346 347 347 346 345 345 344 343 343 343 343 342 340 339 338 336 334 332 330 329 326 323 320 316 311 307 303 299 296 293 288 282 276 273 274 276 274 271 267 262 257 257
339 124 115 48 17 7 358 349 345 345 345 344 343 344 344 345 346 347 347 348 348 349 349 348 347 347 347 347 346 346 346 346 345 343 342 340 339 337 336 334 333 331 329 326 322 318 314 311 306 300 296 292 286 276 269 267 268 270 270 268 265 259 255
154 140 77 19 4 356 348 343 343 343 343 343 344 346 347 348 349 349 350 351 350 350 350 349 349 350 349 349 349 348 348 348 346 345 343 342 340 339 338 337 336 334 333 330 327 324 320 317 313 308 302 298 293 283 271 264 263 263 264 264 264 261 256
142 88 17 360 351 347 343 342 343 343 344 346 348 349 350 350 351 351 351 351 351 351 351 351 352 351 351 351 350 350 349 349 348 346 345 344 343 342 341 339 338 337 335 333 330 327 324 320 317 313 308 305 300 292 278 267 263 262 260 259 260 259 257
105 16 356 351 347 344 343 343 345 346 348 350 351 351 351 352 353 352 351 351 352 352 353 353 353 353 353 352 351 351 351 350 349 348 347 346 345 345 343 342 340 339 337 335 333 330 327 324 320 317 313 310 306 299 286 271 263 262 261 260 258 257 256
26 352 351 348 345 343 343 345 347 349 352 354 353 353 353 354 354 353 353 353 354 355 355 355 354 354 354 353 353 353 352 351 350 349 349 348 347 346 346 346 344 342 340 339 338 337 336 333 329 323 319 316 312 304 293 279 266 259 259 261 260 258 256
345 350 351 348 346 346 346 347 350 354 356 356 354 354 354 355 355 355 355 356 356 356 356 356 356 356 356 355 354 354 353 352 351 350 351 351 350 349 349 349 348 347 345 344 344 344 344 343 339 334 330 326 321 311 299 288 276 263 256 256 258 258 257
355 355 353 351 350 349 350 353 356 357 357 355 354 355 356 357 357 357 357 357 357 357 358 358 359 358 358 357 356 355 354 353 352 352 353 353 352 351 352 352 351 351 349 348 347 346 345 344 343 342 340 336 333 327 317 306 296 282 266 256 254 255 255
3 360 357 356 355 356 358 359 359 358 357 355 355 356 357 359 359 359 359 358 358 359 0 1 1 1 360 359 358 357 356 355 354 354 354 354 354 353 354 354 354 352 350 348 346 344 343 342 341 340 340 338 336 334 330 324 317 306 289 270 259 255 253
10 6 2 360 0 3 4 3 0 359 357 357 357 358 359 1 1 1 0 360 360 1 2 2 3 3 1 0 359 358 358 357 356 355 356 356 356 356 355 356 355 353 350 347 345 343 341 340 338 337 338 337 333 330 327 325 321 315 306 292 273 262 256
15 10 6 5 7 9 9 5 2 0 359 358 359 0 2 3 2 2 1 1 1 2 3 4 5 4 3 2 1 1 0 359 358 357 358 357 357 358 358 357 355 352 349 346 345 343 342 341 340 339 338 336 333 330 328 324 321 314 307 302 291 276 264
19 15 11 9 11 13 11 8 5 2 1 1 0 1 3 4 3 3 3 3 3 3 5 6 6 6 5 4 3 3 3 2 0 360 0 0 359 359 359 358 354 351 349 348 346 346 346 347 347 345 344 341 337 337 336 335 339 336 311 301 301 294 280